FW6984 Weather Reports


time (UTC)temp
C
wind
direction
speed
KPH
gust
KPH
rain 1hr
cm
rain 24hr
cm
rain mn
cm
humidity
%
barometer
mb
20260506051006 17 218 8.0 16.1 0.00 0.00 0.00 30 1005.5
20260506050507 17 235 8.0 16.1 0.00 0.00 0.00 30 1005.5
20260506045007 17 201 9.7 14.5 0.00 0.00 0.00 29 1005.4
20260506044508 18 195 8.0 12.9 0.00 0.00 0.00 29 1005.3
20260506044005 18 196 8.0 12.9 0.00 0.00 0.00 28 1005.2
20260506043505 18 203 6.4 22.5 0.00 0.00 0.00 28 1005.2
20260506043004 18 193 8.0 22.5 0.00 0.00 0.00 28 1005.1
20260506042504 18 210 9.7 16.1 0.00 0.00 0.00 28 1005.1
20260506042005 18 212 11.3 16.1 0.00 0.00 0.00 27 1005.0
20260506041504 18 198 8.0 14.5 0.00 0.00 0.00 27 1005.0
20260506041003 18 206 8.0 16.1 0.00 0.00 0.00 27 1004.9
20260506040503 18 187 9.7 14.5 0.00 0.00 0.00 27 1004.9
20260506040003 18 194 8.0 16.1 0.00 0.00 0.00 27 1004.8
20260506035505 18 218 9.7 16.1 0.00 0.00 0.00 26 1004.7
20260506035003 19 200 9.7 16.1 0.00 0.00 0.00 26 1004.6
20260506034507 19 202 9.7 20.9 0.00 0.00 0.00 25 1004.5
20260506034002 19 227 11.3 20.9 0.00 0.00 0.00 25 1004.3
20260506033501 19 216 9.7 19.3 0.00 0.00 0.00 25 1004.2
20260506033001 19 234 11.3 19.3 0.00 0.00 0.00 26 1004.1
20260506032501 19 214 8.0 12.9 0.00 0.00 0.00 26 1004.1
20260506032003 20 212 6.4 12.9 0.00 0.00 0.00 26 1004.0
20260506031502 20 210 6.4 12.9 0.00 0.00 0.00 26 1003.9
20260506031100 20 207 6.4 11.3 0.00 0.00 0.00 26 1003.9
20260506030601 20 210 6.4 11.3 0.00 0.00 0.00 26 1003.7
20260506025602 20 224 4.8 11.3 0.00 0.00 0.00 26 1003.7
20260506025101 20 216 4.8 12.9 0.00 0.00 0.00 26 1003.5
20260506024618 20 233 4.8 16.1 0.00 0.00 0.00 26 1003.4
20260506024059 20 237 8.0 16.1 0.00 0.00 0.00 26 1003.5
20260506023559 20 223 4.8 16.1 0.00 0.00 0.00 26 1003.4
20260506023058 20 235 6.4 19.3 0.00 0.00 0.00 26 1003.2
20260506022558 20 250 11.3 19.3 0.00 0.00 0.00 26 1003.3
20260506022058 20 256 11.3 19.3 0.00 0.00 0.00 26 1003.2
20260506021559 20 234 11.3 20.9 0.00 0.00 0.00 26 1003.2
20260506021058 21 235 12.9 17.7 0.00 0.00 0.00 26 1003.0
20260506020557 21 258 9.7 16.1 0.00 0.00 0.00 26 1003.0
20260506020059 21 257 11.3 24.1 0.00 0.00 0.00 26 1003.0
20260506015557 21 260 16.1 22.5 0.00 0.00 0.00 26 1003.0
20260506015057 21 240 9.7 25.7 0.00 0.00 0.00 27 1002.8
20260506014557 21 270 14.5 25.7 0.00 0.00 0.00 26 1002.8
20260506014100 21 270 14.5 24.1 0.00 0.00 0.00 27 1002.8
20260506013557 21 247 14.5 24.1 0.00 0.00 0.00 27 1002.8
20260506013156 21 252 17.7 24.1 0.00 0.00 0.00 29 1002.7
20260506012558 21 265 14.5 25.7 0.00 0.00 0.00 30 1002.6
20260506012054 21 252 12.9 25.7 0.00 0.00 0.00 31 1002.7
20260506011606 21 270 12.9 29.0 0.00 0.00 0.00 31 1002.6
20260506011054 21 276 17.7 29.0 0.00 0.00 0.00 31 1002.7
20260506010553 21 285 16.1 27.4 0.00 0.00 0.00 32 1002.7
20260506010057 21 275 12.9 25.7 0.00 0.00 0.00 32 1002.7
20260506005552 21 266 16.1 25.7 0.00 0.00 0.00 31 1002.6
20260506005055 21 254 14.5 32.2 0.00 0.00 0.00 32 1002.6
20260506004554 22 294 19.3 32.2 0.00 0.00 0.00 31 1002.5
20260506004052 22 274 16.1 25.7 0.00 0.00 0.00 30 1002.5
20260506003552 22 284 20.9 25.7 0.00 0.00 0.00 29 1002.6
20260506003052 22 259 16.1 30.6 0.00 0.00 0.00 28 1002.4
20260506002551 22 275 19.3 30.6 0.00 0.00 0.00 28 1002.5
20260506002051 22 272 17.7 29.0 0.00 0.00 0.00 29 1002.4
20260506001550 22 257 16.1 22.5 0.00 0.00 0.00 30 1002.6
20260506001051 22 289 12.9 24.1 0.00 0.00 0.00 31 1002.4
20260506000550 22 271 16.1 27.4 0.00 0.00 0.00 31 1002.4
20260506000051 22 258 12.9 29.0 0.00 0.00 0.00 31 1002.4
20260505235548 22 270 11.3 24.1 0.00 0.00 0.00 31 1002.4
20260505235047 22 241 16.1 27.4 0.00 0.00 0.00 31 1002.3
20260505234547 22 269 16.1 29.0 0.00 0.00 0.00 30 1002.4
20260505234047 22 237 16.1 27.4 0.00 0.00 0.00 31 1002.4
20260505233545 22 247 19.3 32.2 0.00 0.00 0.00 31 1002.4
20260505233045 22 254 16.1 32.2 0.00 0.00 0.00 30 1002.4
20260505232545 22 255 17.7 37.0 0.00 0.00 0.00 31 1002.5
20260505232047 22 278 12.9 40.2 0.00 0.00 0.00 31 1002.6
20260505231544 22 267 17.7 30.6 0.00 0.00 0.00 30 1002.5
20260505231047 22 287 16.1 29.0 0.00 0.00 0.00 31 1002.6
20260505230542 22 262 17.7 29.0 0.00 0.00 0.00 31 1002.6
20260505230054 22 246 16.1 32.2 0.00 0.00 0.00 31 1002.7
20260505225541 22 284 17.7 32.2 0.00 0.00 0.00 30 1002.8
20260505225041 22 247 16.1 38.6 0.00 0.00 0.00 30 1002.8
20260505224541 22 225 17.7 38.6 0.00 0.00 0.00 31 1002.9
20260505224043 22 268 22.5 41.8 0.00 0.00 0.00 31 1002.9
20260505223539 22 280 25.7 41.8 0.00 0.00 0.00 30 1002.9
20260505223053 22 262 25.7 43.5 0.00 0.00 0.00 31 1002.9
20260505222538 22 255 17.7 45.1 0.00 0.00 0.00 32 1003.0
20260505222038 22 264 27.4 45.1 0.00 0.00 0.00 31 1003.2
20260505221537 22 249 20.9 43.5 0.00 0.00 0.00 31 1003.2
20260505221039 22 246 19.3 40.2 0.00 0.00 0.00 31 1003.3
20260505220536 22 263 25.7 41.8 0.00 0.00 0.00 31 1003.4
20260505220041 22 202 20.9 40.2 0.00 0.00 0.00 32 1003.3
20260505215534 22 189 20.9 35.4 0.00 0.00 0.00 32 1003.6
20260505215034 22 263 22.5 40.2 0.00 0.00 0.00 32 1003.6
20260505214532 22 266 27.4 40.2 0.00 0.00 0.00 32 1003.6
20260505214032 22 280 20.9 30.6 0.00 0.00 0.00 33 1003.8
20260505213530 22 194 12.9 29.0 0.00 0.00 0.00 36 1004.0
20260505213045 21 241 17.7 30.6 0.00 0.00 0.00 37 1004.0
20260505212531 21 222 19.3 33.8 0.00 0.00 0.00 37 1004.2
20260505212027 21 218 19.3 38.6 0.00 0.00 0.00 37 1004.3
20260505211527 21 250 19.3 38.6 0.00 0.00 0.00 38 1004.3
20260505211025 21 246 16.1 37.0 0.00 0.00 0.00 39 1004.5
20260505210524 21 231 20.9 35.4 0.00 0.00 0.00 39 1004.5
20260505210023 21 204 19.3 38.6 0.00 0.00 0.00 39 1004.6
20260505205523 20 264 20.9 38.6 0.00 0.00 0.00 39 1004.8
20260505205022 20 222 16.1 27.4 0.00 0.00 0.00 40 1004.8
20260505204521 20 208 14.5 27.4 0.00 0.00 0.00 41 1004.9
20260505204024 20 201 19.3 33.8 0.00 0.00 0.00 41 1005.1
20260505203520 20 233 19.3 33.8 0.00 0.00 0.00 41 1005.2
20260505203025 20 199 11.3 32.2 0.00 0.00 0.00 41 1005.2
20260505202520 20 262 20.9 38.6 0.00 0.00 0.00 41 1005.3
20260505202020 20 247 22.5 37.0 0.00 0.00 0.00 42 1005.4
20260505201520 19 266 25.7 37.0 0.00 0.00 0.00 42 1005.4
20260505201019 19 279 25.7 38.6 0.00 0.00 0.00 42 1005.6
20260505200521 19 265 25.7 37.0 0.00 0.00 0.00 42 1005.4
20260505200030 19 270 19.3 45.1 0.00 0.00 0.00 42 1005.5
20260505195518 19 233 17.7 45.1 0.00 0.00 0.00 43 1005.6
20260505195018 19 243 27.4 37.0 0.00 0.00 0.00 43 1005.8
20260505194518 18 260 16.1 35.4 0.00 0.00 0.00 43 1005.8
20260505194017 18 234 22.5 35.4 0.00 0.00 0.00 43 1005.9
20260505193517 18 210 24.1 35.4 0.00 0.00 0.00 43 1005.9
20260505193017 18 248 22.5 45.1 0.00 0.00 0.00 44 1005.9
20260505192519 18 272 22.5 56.3 0.00 0.00 0.00 46 1006.0
20260505192016 17 281 30.6 56.3 0.00 0.00 0.00 50 1006.1
20260505191516 17 276 41.8 61.2 0.00 0.00 0.00 51 1006.0
20260505191016 17 279 38.6 61.2 0.00 0.00 0.00 48 1006.1
20260505190517 17 253 41.8 57.9 0.00 0.00 0.00 47 1006.0
20260505190015 17 267 38.6 54.7 0.00 0.00 0.00 46 1006.3
20260505185518 17 274 30.6 66.0 0.00 0.00 0.00 45 1006.6
20260505185014 17 268 38.6 66.0 0.00 0.00 0.00 44 1006.7
20260505184521 18 260 41.8 64.4 0.00 0.00 0.00 42 1006.8
20260505184013 18 283 29.0 46.7 0.00 0.00 0.00 42 1006.6
20260505183512 18 260 24.1 45.1 0.00 0.00 0.00 43 1006.6
20260505183011 18 276 29.0 45.1 0.00 0.00 0.00 44 1006.2
20260505182510 18 258 25.7 40.2 0.00 0.00 0.00 44 1006.1
20260505182010 18 280 29.0 51.5 0.00 0.00 0.00 43 1006.1
20260505181510 18 276 32.2 51.5 0.00 0.00 0.00 44 1006.1
20260505181010 18 286 25.7 41.8 0.00 0.00 0.00 41 1006.0
20260505180514 18 294 30.6 41.8 0.00 0.00 0.00 41 1006.0
20260505180009 18 281 29.0 51.5 0.00 0.00 0.00 41 1005.9
20260505175509 18 310 29.0 51.5 0.00 0.00 0.00 40 1005.8
20260505175009 19 274 20.9 38.6 0.00 0.00 0.00 38 1005.9
20260505174514 19 286 25.7 40.2 0.00 0.00 0.00 38 1005.9
20260505174008 20 294 22.5 41.8 0.00 0.00 0.00 37 1005.7
20260505173512 20 282 29.0 41.8 0.00 0.00 0.00 37 1005.7
20260505173018 20 283 17.7 29.0 0.00 0.00 0.00 37 1005.7
20260505172505 20 235 17.7 30.6 0.00 0.00 0.00 37 1005.7
20260505172006 19 246 17.7 33.8 0.00 0.00 0.00 37 1005.7
20260505171505 19 252 19.3 35.4 0.00 0.00 0.00 37 1005.8
20260505171009 19 241 20.9 35.4 0.00 0.00 0.00 37 1005.6
20260505170504 19 270 12.9 24.1 0.00 0.00 0.00 38 1005.6
20260505170004 19 211 16.1 27.4 0.00 0.00 0.00 37 1005.5
20260505165503 19 254 17.7 27.4 0.00 0.00 0.00 38 1005.4
20260505165003 19 271 14.5 29.0 0.00 0.00 0.00 39 1005.6
20260505164502 18 301 17.7 29.0 0.00 0.00 0.00 39 1005.5
20260505164100 18 265 14.5 27.4 0.00 0.00 0.00 40 1005.5
20260505163558 18 275 11.3 20.9 0.00 0.00 0.00 41 1005.6
20260505163101 18 232 4.8 17.7 0.00 0.00 0.00 43 1005.5
20260505162559 18 270 9.7 19.3 0.00 0.00 0.00 43 1005.5
20260505162054 18 258 12.9 20.9 0.00 0.00 0.00 43 1005.5
20260505161553 17 242 12.9 20.9 0.00 0.00 0.00 43 1005.4
20260505161053 17 239 9.7 16.1 0.00 0.00 0.00 42 1005.4
20260505160557 17 276 8.0 16.1 0.00 0.00 0.00 43 1005.4
20260505153106 17 286 11.3 16.1 0.00 0.00 0.00 45 1005.8
20260505152548 17 278 1.6 12.9 0.00 0.00 0.00 47 1005.7
20260505152047 17 316 3.2 14.5 0.00 0.00 0.00 47 1005.8
20260505151555 17 316 4.8 14.5 0.00 0.00 0.00 47 1005.8
20260505151047 17 250 3.2 11.3 0.00 0.00 0.00 48 1005.7
20260505150547 17 243 3.2 6.4 0.00 0.00 0.00 47 1005.6
20260505140543 15 185 1.6 6.4 0.00 0.00 0.00 57 1005.8
20260505125023 13 185 0.0 3.2 0.00 0.00 0.00 58 1005.4
20260505124527 13 185 0.0 6.4 0.00 0.00 0.00 59 1005.2
20260505124022 13 185 1.6 6.4 0.00 0.00 0.00 59 1005.3
20260505123521 13 154 0.0 8.0 0.00 0.00 0.00 60 1005.2
20260505123018 13 154 1.6 9.7 0.00 0.00 0.00 61 1005.2
20260505122517 12 154 4.8 9.7 0.00 0.00 0.00 61 1005.1
20260505122017 12 156 4.8 9.7 0.00 0.00 0.00 62 1005.1
20260505121517 12 195 4.8 8.0 0.00 0.00 0.00 62 1004.9
20260505121017 12 195 3.2 6.4 0.00 0.00 0.00 62 1004.8
20260505120515 13 200 3.2 6.4 0.00 0.00 0.00 61 1004.8
20260505120014 13 218 3.2 6.4 0.00 0.00 0.00 60 1004.8
20260505115513 13 273 0.0 3.2 0.00 0.00 0.00 58 1004.8
20260505115012 13 273 0.0 3.2 0.00 0.00 0.00 57 1004.8
20260505114522 13 273 0.0 4.8 0.00 0.00 0.00 57 1004.7
20260505114012 13 273 0.0 3.2 0.00 0.00 0.00 56 1004.7
20260505113509 13 273 0.0 3.2 0.00 0.00 0.00 56 1004.7
20260505113009 13 273 0.0 4.8 0.00 0.00 0.00 55 1004.7
20260505112508 14 273 0.0 3.2 0.00 0.00 0.00 54 1004.7
20260505112008 14 273 0.0 4.8 0.00 0.00 0.00 53 1004.4
20260505111508 14 273 1.6 8.0 0.00 0.00 0.00 53 1004.4
20260505111009 14 273 3.2 8.0 0.00 0.00 0.00 53 1004.4
20260505110507 14 189 3.2 8.0 0.00 0.00 0.00 53 1004.5
20260505102005 14 138 3.2 6.4 0.00 0.00 0.00 53 1004.7
20260505101505 14 138 3.2 4.8 0.00 0.00 0.00 52 1004.5
20260505101004 14 138 3.2 4.8 0.00 0.00 0.00 52 1004.4
20260505100504 14 138 3.2 4.8 0.00 0.00 0.00 52 1004.5
20260505100004 14 138 1.6 4.8 0.00 0.00 0.00 53 1004.4
20260505095505 14 137 3.2 4.8 0.00 0.00 0.00 52 1004.4
20260505095003 14 137 3.2 6.4 0.00 0.00 0.00 52 1004.5
20260505094505 14 137 3.2 6.4 0.00 0.00 0.00 53 1004.5
20260505094002 13 137 4.8 8.0 0.00 0.00 0.00 53 1004.3
20260505093502 14 137 3.2 8.0 0.00 0.00 0.00 53 1004.3
20260505093001 14 137 3.2 8.0 0.00 0.00 0.00 52 1004.2
20260505092600 14 137 3.2 8.0 0.00 0.00 0.00 52 1004.3
20260505092059 15 137 6.4 8.0 0.00 0.00 0.00 50 1004.3
20260505091602 15 238 1.6 4.8 0.00 0.00 0.00 48 1004.3
20260505091056 15 238 1.6 6.4 0.00 0.00 0.00 48 1004.3
20260505090555 15 238 3.2 8.0 0.00 0.00 0.00 47 1004.6
20260505090059 15 238 4.8 8.0 0.00 0.00 0.00 47 1004.7
20260505085554 15 244 4.8 11.3 0.00 0.00 0.00 46 1004.6
20260505085052 15 244 6.4 12.9 0.00 0.00 0.00 46 1004.7
20260505084552 16 247 6.4 12.9 0.00 0.00 0.00 46 1004.6
20260505084051 16 233 6.4 14.5 0.00 0.00 0.00 45 1004.6
20260505083549 16 263 9.7 14.5 0.00 0.00 0.00 45 1004.8
20260505083050 16 242 8.0 14.5 0.00 0.00 0.00 44 1004.8
20260505082547 16 237 8.0 14.5 0.00 0.00 0.00 44 1004.8
20260505082049 16 200 6.4 9.7 0.00 0.00 0.00 45 1004.8
20260505081558 16 206 4.8 9.7 0.00 0.00 0.00 44 1004.8
20260505081047 16 202 4.8 8.0 0.00 0.00 0.00 44 1004.9
20260505080545 16 214 4.8 8.0 0.00 0.00 0.00 43 1004.9
20260505080049 17 214 3.2 8.0 0.00 0.00 0.00 43 1004.9
20260505075547 17 214 4.8 8.0 0.00 0.00 0.00 42 1004.9
20260505075044 17 212 4.8 8.0 0.00 0.00 0.00 41 1005.0
20260505074604 17 241 3.2 8.0 0.00 0.00 0.00 41 1005.0
20260505074044 16 241 3.2 8.0 0.00 0.00 0.00 40 1004.8
20260505073542 16 241 3.2 11.3 0.00 0.00 0.00 40 1005.0
20260505073042 17 241 4.8 11.3 0.00 0.00 0.00 39 1005.1
20260505072543 16 231 6.4 11.3 0.00 0.00 0.00 38 1005.1
20260505072042 16 245 4.8 11.3 0.00 0.00 0.00 38 1005.1
20260505071542 16 246 4.8 11.3 0.00 0.00 0.00 38 1005.1
20260505071040 16 238 3.2 8.0 0.00 0.00 0.00 39 1004.9
20260505070540 16 238 3.2 8.0 0.00 0.00 0.00 39 1004.9
20260505070040 16 238 4.8 8.0 0.00 0.00 0.00 39 1004.7
20260505065538 16 238 4.8 6.4 0.00 0.00 0.00 39 1004.4
20260505065038 16 195 3.2 6.4 0.00 0.00 0.00 39 1004.4
20260505064538 16 195 3.2 6.4 0.00 0.00 0.00 39 1004.6
20260505064035 17 195 1.6 4.8 0.00 0.00 0.00 37 1004.6
20260505063534 17 195 1.6 6.4 0.00 0.00 0.00 37 1004.6
20260505063040 17 195 3.2 6.4 0.00 0.00 0.00 36 1004.8
20260505062534 17 195 1.6 4.8 0.00 0.00 0.00 35 1004.7
20260505062030 17 195 1.6 4.8 0.00 0.00 0.00 34 1004.8
20260505061534 17 195 0.0 4.8 0.00 0.00 0.00 34 1004.6
20260505061029 17 195 1.6 4.8 0.00 0.00 0.00 33 1004.8
20260505060527 18 195 1.6 3.2 0.00 0.00 0.00 33 1004.9
20260505060026 18 195 0.0 4.8 0.00 0.00 0.00 32 1005.0
20260505055527 18 195 1.6 6.4 0.00 0.00 0.00 32 1005.0
20260505055027 18 195 3.2 8.0 0.00 0.00 0.00 31 1005.1